This demonstration page uses our WeatherBlox Daily Observations layout. Learn more.

38.88101, -77.10428

Hourly Observations for April 17, 2020

Temp ( °F °C ) Dew Point ( °F °C ) Humidity (%) Winds ( mph kmh ) Pressure ( in mb ) Visibility ( mi km ) Precip ( " mm )
12:52 am 00:52 Partly Cloudy 45 7.2 20 -6.7 37 37 Calm 30.31 1027 10 16.0934 0 0
1:52 am 01:52 Mostly Cloudy 44 6.7 22 -5.6 41 41 SE 3 6 30.32 1027 10 16.0934 0 0
2:52 am 02:52 Mostly Cloudy 40 4.4 28 -2.2 63 63 SW 7 11 30.31 1026 10 16.0934 0 0
3:52 am 03:52 Partly Cloudy 42 5.6 27 -2.8 55 55 Calm 30.32 1027 10 16.0934 0 0
4:52 am 04:52 Mostly Cloudy 42 5.6 28 -2.2 58 58 WSW 3 6 30.32 1027 10 16.0934 0 0
5:52 am 05:52 Partly Cloudy 41 5 28 -2.2 60 60 Calm 30.33 1027 10 16.0934 0 0
6:52 am 06:52 Mostly Sunny 39 3.9 29 -1.7 67 67 Calm 30.35 1028 10 16.0934 0 0
7:52 am 07:52 Mostly Sunny 43 6.1 31 -0.6 63 63 NE 3 6 30.36 1028 10 16.0934 0 0
8:52 am 08:52 Mostly Cloudy 46 7.8 31 -0.6 56 56 S 7 11 30.36 1028 10 16.0934 0 0
9:52 am 09:52 Sunny 50 10 29 -1.7 44 44 S 8 13 30.32 1027 10 16.0934 0 0
10:52 am 10:52 Mostly Cloudy 52 11.1 28 -2.2 40 40 S 7 11 30.31 1026 10 16.0934 0 0
11:52 am 11:52 Mostly Cloudy 54 12.2 28 -2.2 37 37 S 10 17 30.27 1025 10 16.0934 0 0
12:52 pm 12:52 Mostly Cloudy 57 13.9 34 1.1 42 42 S 12 19 30.22 1023 10 16.0934 0 0
1:52 pm 13:52 Cloudy 56 13.3 32 0 40 40 S 16 26 30.18 1022 10 16.0934 0 0
2:52 pm 14:52 Cloudy 57 13.9 37 2.8 47 47 S 13 20 30.14 1021 10 16.0934 0 0
3:52 pm 15:52 Cloudy 57 13.9 36 2.2 45 45 S 13 20 30.1 1019 10 16.0934 0 0
4:52 pm 16:52 Mostly Cloudy 57 13.9 39 3.9 51 51 SSE 10 17 30.04 1017 10 16.0934 0 0
5:52 pm 17:52 Cloudy 58 14.4 39 3.9 50 50 SSE 8 13 30 1016 10 16.0934 0 0
6:52 pm 18:52 Mostly Cloudy 57 13.9 41 5 55 55 ESE 10 17 29.97 1015 10 16.0934 0 0
7:52 pm 19:52 Mostly Cloudy 55 12.8 43 6.1 64 64 SE 8 13 29.93 1014 10 16.0934 0 0
8:52 pm 20:52 Cloudy 54 12.2 44 6.7 69 69 NNE 7 11 29.95 1014 10 16.0934 0 0
9:52 pm 21:52 Cloudy 53 11.7 44 6.7 72 72 ENE 12 19 29.91 1013 10 16.0934 0.001 0.001
10:52 pm 22:52 Mostly Cloudy 51 10.6 44 6.7 77 77 ENE 8 13 29.88 1012 10 16.0934 0 0
11:52 pm 23:52 Partly Cloudy 50 10 43 6.1 77 77 NE 6 9 29.84 1011 10 16.0934 0 0

Powered by AerisWeather